Flag for Albania Weather past 2 weeks in Durrës, Albania

Now
34 °F

Sunny.


Feels Like: 34 °F
Forecast: 46 / 55 °F
Wind: 2 mph from Northeast

Location: Tirana Airport

Current Time: Dec 22, 2014 at 8:48:32 AM

Latest Report: Dec 22, 2014 at 8:20 AM


Visibility: 10 mi

Pressure: 30.45 "Hg

Humidity: 81%

Dew point: 28 °F

Location of DurrësLocation

Historic Weather in Durrës — Graph

°F

Durrës temperature yesterday

Maximum temperature yesterday: 59 °F (at 1:50 PM)
Minimum temperature yesterday: 36 °F (at 11:50 PM)
Average temperature yesterday: 47 °F

Past Weeks' High & Low Weather Summary

 TemperatureHumidityPressure
High63 °F (Dec 8, 12:50 PM)100% (Dec 8, 12:20 AM)30.42 "Hg (Dec 8, 12:20 AM)
Low28 °F (Dec 22, 2:50 AM)31% (Dec 13, 11:50 AM)29.68 "Hg (Dec 9, 1:50 AM)
Average47 °F79%30.07 "Hg
* Reported Dec 7 7:20 AM — Dec 22 7:20 AM, Durrës, Weather by CustomWeather, © 2014

Note: Actual official high and low records may vary slightly from our data, if they occured in-between our weather recording intervals... More about our weather records

Advertising

Durrës weather history for previous 24 hours

 ConditionsComfort  
Time TempWeatherWind HumidityBarometerVisibility
7:20 AM
Dec 22
30 °FSunny.2 mph80%30.42 "Hg10 mi
6:50 AM30 °FClear.5 mph86%30.42 "Hg10 mi
6:20 AM28 °FClear.5 mph86%30.42 "Hg10 mi
5:50 AM30 °FClear.3 mph86%30.42 "Hg10 mi
5:20 AM28 °FClear.7 mph86%30.42 "Hg10 mi
4:50 AM30 °FClear.2 mph86%30.42 "Hg10 mi
4:20 AM30 °FClear.2 mph80%30.42 "Hg10 mi
3:50 AM28 °FPassing clouds.3 mph86%30.42 "HgN/A
3:20 AM28 °FClear.No wind86%30.42 "Hg10 mi
2:50 AM28 °FClear.No wind86%30.42 "Hg10 mi
2:20 AM32 °FClear.2 mph75%30.42 "Hg10 mi
1:20 AM34 °FPassing clouds.7 mph70%30.42 "HgN/A
12:50 AM34 °FClear.3 mph70%30.42 "Hg10 mi
12:20 AM32 °FPassing clouds.3 mph75%30.42 "HgN/A
11:50 PM
Dec 21
36 °FClear.No wind60%30.42 "Hg10 mi
11:20 PM41 °FPassing clouds.3 mph45%30.42 "HgN/A
10:20 PM37 °FPassing clouds.6 mph56%30.39 "HgN/A
9:50 PM37 °FClear.3 mph56%30.39 "Hg10 mi
9:20 PM41 °FClear.2 mph45%30.39 "Hg10 mi
8:50 PM41 °FClear.3 mph45%30.39 "Hg10 mi
8:20 PM45 °FPassing clouds.5 mph39%30.36 "HgN/A
7:50 PM45 °FPassing clouds.3 mph37%30.36 "HgN/A
7:20 PM43 °FClear.9 mph46%30.36 "Hg10 mi
6:50 PM45 °FPassing clouds.5 mph39%30.33 "HgN/A
6:20 PM43 °FPassing clouds.3 mph49%30.33 "HgN/A
5:50 PM46 °FClear.6 mph46%30.30 "Hg10 mi
5:20 PM46 °FPassing clouds.6 mph46%30.30 "HgN/A
4:50 PM48 °FClear.8 mph43%30.27 "Hg10 mi
4:20 PM50 °FPassing clouds.6 mph43%30.27 "HgN/A
3:50 PM55 °FSunny.5 mph31%30.24 "Hg10 mi
3:20 PM55 °FPassing clouds.5 mph38%30.24 "HgN/A
2:50 PM57 °FSunny.9 mph36%30.21 "Hg10 mi
2:20 PM59 °FSunny.2 mph34%30.21 "Hg10 mi
1:50 PM59 °FScattered clouds.1 mph42%30.21 "HgN/A
1:20 PM57 °FScattered clouds.5 mph44%30.21 "HgN/A
12:50 PM57 °FScattered clouds.3 mph44%30.18 "HgN/A
12:20 PM55 °FScattered clouds.3 mph47%30.18 "HgN/A
11:50 AM55 °FScattered clouds.5 mph51%30.18 "HgN/A
11:20 AM54 °FBroken clouds.5 mph63%30.18 "HgN/A
10:50 AM50 °FBroken clouds.6 mph76%30.18 "HgN/A
10:20 AM50 °FCloudy.9 mph88%30.21 "HgN/A
9:50 AM50 °FLight rain. Broken clouds.8 mph88%30.21 "HgN/A
9:20 AM48 °FLight rain. Cloudy.5 mph94%30.18 "HgN/A
8:50 AM48 °FHeavy rain. Cloudy.8 mph94%30.18 "Hg2 mi
8:20 AM48 °FHeavy rain. Cloudy.2 mph82%30.15 "Hg4 mi
Weather by CustomWeather, © 2014

See weather overviewHow to use our weather pages